FENGYUN 1C DEB, 31880

Orbit data source: Space-Track

FENGYUN 1C DEB, 31880 is space debris in SSO originally from a launch on Mon, 10 May 1999 UTC launched from the Taiyaun Space Center, China (TSC). Fengyun 1C debris stems from the Chinese weather satellite Fengyun-1C, which was intentionally destroyed by a Chinese anti-satellite missile in 2007. This event dramatically increased the amount of space debris, with thousands of trackable fragments posing hazards to satellites and human spaceflight. The Fengyun 1C debris cloud has become a focal point in discussions about space sustainability and the need for international regulations to prevent the creation of new debris.

Loading next visibility...
Identifier
31880, 1999-025CKF
Orbit
SSO
Country
Flag of CNCN / PRC
Related business
Manufacturer
Unknown
Mission
Spacecraft
Bus & Motor
Unknown
Mass
Unknown
Launch date (UTC)
1999-05-10 (27 years ago)
Launch vehicle
Unknown
Launch site
Taiyaun Space Center, China (TSC)
Object type
Payload
Rocket body
Debris
Shape & HBR
Unknown shape, 0.1 m
Radar Cross Section
Small (<0.1 m²)

Expand to show TLE details & history
Last TLE update: 3 weeks ago

TLE from 3 weeks ago
0 FENGYUN 1C DEB
1 31880U 99025CKF 26041.25517195  .00000836  00000-0  68031-3 0  9991
2 31880 100.0331 213.6299 0126843 355.6300   4.3738 13.89519140638067
Epoch: 2026-02-10T06:07Z
TLE epoch observation values (Epoch: 2026-02-10T06:07:26.856Z)
Latitude
-0.00002°
Longitude
-18.57026°
Altitude
840.702 km
Speed
7.479 km/s
True Right ascension
14h 14m 31s
True Declination
0° 00' 00"
Sunlit
Object was in daylight at epoch
Visualization orbit readout
Latitude
Unknown
Longitude
Unknown
Altitude
Unknown
Speed
Unknown
Apparent Right ascension
Unknown
Apparent Declination
Unknown
Sunlit
N/A
Visualization observer readout
Local Sidereal Time
06:14:29
Azimuth
Unknown
Elevation
Unknown
Doppler factor
Unknown
Orbital elements
Apogee altitude
1,020.25 km
Perigee altitude
834.914 km
Semi-major axis
7,305.719 km
Eccentricity
0.01268
Inclination
100.0331°
RAAN
213.6299°
Arg. of periapsis
355.63°
True anomaly
4.48643°
Mean anomaly
4.3738°
Eccentric anomaly
4.42993°
Mean motion
3.47575 °/min
Orbital period
103.57 mins
BSTAR
0.00068031
Loading maneuver chart data...
Computing Atmospheric mass density...

Documentation

Showing up to 5 results
|